Home > Weather > Macon > Past weeks

Flag for USA Past Weather in Macon, Georgia, USA — Yesterday and Last 2 Weeks

Now
89 °F

Sunny.


Feels Like: 92 °F
Forecast: 74 / 93 °F
Wind: 3 mph from South

Location: Middle Georgia Regional Airport

Current Time: Jul 25, 2016 at 8:45:10 PM

Latest Report: Jul 25, 2016 at 7:53 PM


Visibility: 10 mi

Pressure: 29.96 "Hg

Humidity: 48%

Dew Point: 67 °F

Location of MaconLocation

Past Weather in Macon — Graph

°F

Macon Temperature Yesterday

Maximum temperature yesterday: 97 °F (at 3:53 PM)
Minimum temperature yesterday: 74 °F (at 6:53 AM)
Average temperature yesterday: 85 °F

High & Low Weather Summary for the Past Weeks

 TemperatureHumidityPressure
High98 °F (Jul 11, 4:53 PM)97% (Jul 21, 3:53 AM)30.27 "Hg (Jul 21, 3:53 AM)
Low69 °F (Jul 12, 6:53 AM)31% (Jul 14, 1:53 PM)29.93 "Hg (Jul 23, 6:53 PM)
Average82 °F68%30.08 "Hg
* Reported Jul 10 6:53 PM — Jul 25 6:53 PM, Macon, Weather by CustomWeather, © 2016

Note: Actual official high and low records may vary slightly from our data, if they occured in-between our weather recording intervals... More about our weather records

Advertising

Macon Weather History for the Previous 24 Hours

Scroll right to see more
 ConditionsComfort  
Time TempWeatherWind HumidityBarometerVisibility
6:53 PM
Mon, Jul 25
92 °FSunny.14 mph43%29.95 "Hg10 mi
5:53 PM97 °FPassing clouds.13 mph39%29.94 "Hg10 mi
4:53 PM94 °FSunny.8 mph44%29.95 "Hg10 mi
3:53 PM97 °FSunny.10 mph39%29.96 "Hg10 mi
2:53 PM94 °FPartly sunny.3 mph44%29.98 "Hg10 mi
1:53 PM95 °FPartly sunny.7 mph40%30.00 "Hg10 mi
12:53 PM93 °FPartly sunny.No wind47%30.02 "Hg10 mi
11:53 AM91 °FSunny.5 mph54%30.04 "Hg10 mi
10:53 AM90 °FSunny.No wind54%30.05 "Hg10 mi
9:53 AM85 °FSunny.No wind68%30.06 "Hg10 mi
8:53 AM81 °FSunny.3 mph77%30.06 "Hg10 mi
7:53 AM77 °FSunny.No wind85%30.05 "Hg10 mi
6:53 AM75 °FClear.No wind88%30.03 "Hg10 mi
5:53 AM75 °FClear.No wind85%30.03 "Hg10 mi
4:53 AM77 °FClear.No wind79%30.00 "Hg10 mi
3:53 AM79 °FClear.3 mph72%29.99 "Hg10 mi
2:53 AM80 °FClear.5 mph71%30.00 "Hg10 mi
1:53 AM80 °FClear.5 mph76%30.01 "Hg10 mi
12:53 AM80 °FClear.5 mph76%30.02 "Hg10 mi
11:53 PM
Sun, Jul 24
80 °FClear.5 mph87%30.02 "Hg10 mi
10:53 PM82 °FClear.No wind79%30.02 "Hg10 mi
9:53 PM81 °FClear.3 mph91%30.00 "Hg10 mi
8:53 PM86 °FSunny.No wind70%29.99 "Hg10 mi
Weather by CustomWeather, © 2016

See weather overviewHow to use our weather pages